White Center, Washington, United States
Lat: 47.52N, Lon: 122.35W
Wx Zone: WAZ508
Local Info
Past Weather Observations for Today

NOTE: This archive is for the closest National Weather Service station to White Center. Information may differ from the station used for current weather conditions.

Click here for Long-term Archive

Time Weather Temperature Dewpoint Humidity Pressure Winds Precip Visibility
20:53
Clear
45°F / 7°C 39°F / 4°C 81% 30.3 in
(1026 mb)
SE 8.1 mph
(SE 13 kph)
- 10SM
19:53
Partly Cloudy
45°F / 7°C 39°F / 4°C 81% 30.3 in
(1026 mb)
SE 5.8 mph
(SE 9 kph)
- 10SM
18:53
Partly Cloudy
48°F / 9°C 39°F / 4°C 71% 30.27 in
(1025 mb)
ESE 3.5 mph
(ESE 6 kph)
- 10SM
17:53
Partly Cloudy
48°F / 9°C 39°F / 4°C 71% 30.24 in
(1024 mb)
Calm - 10SM
16:53
Partly Cloudy
52°F / 11°C 39°F / 4°C 62% 30.21 in
(1023 mb)
Calm - 10SM
15:53
Partly Cloudy
54°F / 12°C 43°F / 6°C 67% 30.18 in
(1022 mb)
SSE 3.5 mph
(SSE 6 kph)
- 10SM
14:53
Mostly Cloudy
57°F / 14°C 43°F / 6°C 59% 30.18 in
(1022 mb)
Calm - 10SM
13:53
Partly Cloudy
57°F / 14°C 45°F / 7°C 63% 30.15 in
(1021 mb)
S 6.9 mph
(S 11 kph)
- 10SM
12:53
Partly Cloudy
57°F / 14°C 45°F / 7°C 63% 30.12 in
(1020 mb)
SW 4.6 mph
(SW 7 kph)
- 10SM
11:53
Overcast
54°F / 12°C 46°F / 8°C 77% 30.12 in
(1020 mb)
SSE 6.9 mph
(SSE 11 kph)
- 10SM
10:53
Overcast
54°F / 12°C 45°F / 7°C 72% 30.12 in
(1020 mb)
SSE 11.5 mph
(SSE 19 kph)
0.00 in
(0.00 mm)
10SM
09:53
Overcast
Light Rain
52°F / 11°C 45°F / 7°C 77% 30.09 in
(1019 mb)
Variable 5.8 mph
(Variable 9 kph)
0.01 in
(0.25 mm)
10SM
09:21
Overcast
52°F / 11°C 45°F / 7°C 77% 30.09 in
(1019 mb)
S 8.1 mph
(S 13 kph)
- 10SM
08:53
Mostly Cloudy
52°F / 11°C 45°F / 7°C 77% 30.09 in
(1019 mb)
S 12.7 mph
(S 20 kph)
0.00 in
(0.00 mm)
10SM
07:53
Overcast
Light Rain
52°F / 11°C 45°F / 7°C 77% 30.09 in
(1019 mb)
S 17.3 mph
(S 28 kph)
0.27 in
(6.86 mm)
6SM
06:53
Overcast
Rain
52°F / 11°C 43°F / 6°C 72% 30.09 in
(1019 mb)
S 10.4 mph
(S 17 kph)
0.07 in
(1.78 mm)
5SM
05:53
Overcast
50°F / 10°C 43°F / 6°C 76% 30.09 in
(1019 mb)
SSE 12.7 mph
(SSE 20 kph)
0.00 in
(0.00 mm)
10SM
04:53
Overcast
50°F / 10°C 43°F / 6°C 76% 30.12 in
(1020 mb)
S 19.6 mph
(S 32 kph)
0.03 in
(0.76 mm)
9SM
03:53
Overcast
Light Rain
50°F / 10°C 43°F / 6°C 76% 30.15 in
(1021 mb)
S 10.4 mph
(S 17 kph)
0.02 in
(0.51 mm)
7SM
02:53
Overcast
Light Rain
50°F / 10°C 43°F / 6°C 76% 30.15 in
(1021 mb)
S 12.7 mph
(S 20 kph)
0.03 in
(0.76 mm)
10SM
01:53
Overcast
Light Rain
50°F / 10°C 43°F / 6°C 76% 30.15 in
(1021 mb)
S 12.7 mph
(S 20 kph)
0.00 in
(0.00 mm)
10SM
00:53
Mostly Cloudy
50°F / 10°C 43°F / 6°C 76% 30.15 in
(1021 mb)
S 11.5 mph
(S 19 kph)
- 10SM
Time Weather Temperature Dewpoint Humidity Pressure Winds Precip Visibility


Weather for websites

WeatherForYou.com, LLC is not responsible for any damages or problems caused by this service. Current weather conditions are obtained from the closest station including government and personal stations which may have varying degrees of accuracy. Weather forecasts are derived from the NOAA NDFD. Like all things, this site belongs to Jesus Christ... He just trusts me to maintain it. If you have any questions or comments email webmaster@weatherforyou.com

Copyright © 2014, WeatherForYou.com LLC. All rights reserved.